Location: City of Moscow
(46.7306°N, 116.9989°W)
Time: 02:43:59
(UTC+00:00)

Tiangong - Pass Details

Date: 23 February 2026
Orbit: 382 x 391 km, 41.5° (Epoch: 6 March)

Event Time Altitude Azimuth Distance (km) Brightness Sun altitude
Rises 01:48:02 0° 263° (W) 2,262 4.8 -4.9°
Reaches altitude 10° 01:51:00 10° 233° (SW) 1,402 1.8 -5.4°
Maximum altitude 01:52:27 13° 205° (SSW) 1,253 1.0 -5.7°
Drops below altitude 10° 01:53:55 10° 178° (S) 1,396 0.8 -5.9°
Sets 01:56:51 0° 147° (SSE) 2,242 1.5 -6.4°
